Regional Weather Roundup
Issued by NWS Charleston, SC

Current Version | Previous Version | Graphics & Text | Print | Product List | Glossary On
Versions: 1 2 3 4 5 6 7 8 9 10 11 12 13 14 15 16 17 18 19 20 21 22 23 24 25 26 27 28 29 30 31 32 33 34 35 36 37 38 39 40 41 42 43 44 45 46 47 48 49 50
000 ASUS42 KCHS 041026 RWRCHS REGIONAL WEATHER ROUNDUP NATIONAL WEATHER SERVICE CHARLESTON SC 500 AM EST WED MAR 04 2015 NOTE: "FAIR" INDICATES FEW OR NO CLOUDS BELOW 12,000 FEET WITH NO SIGNIFICANT WEATHER AND/OR OBSTRUCTIONS TO VISIBILITY. NOT ALL STATIONS ARE QUALITY CONTROLLED BY THE NATIONAL WEATHER SERVICE. USE DATA WITH CAUTION...ESPECIALLY DEWPOINT OBSERVATIONS. SCZ027-030-031-034>040-042>050-041100- ...SOUTHEAST SOUTH CAROLINA... CITY SKY/WX TMP DP RH WIND PRES REMARKS N CHARLESTON PTCLDY 59 59 100 SW8 30.09S WATERFRONT PRK N/A 63 N/A N/A SW8 N/A MOUNT PLEASANT PTSUNNY 63 63 100 S7 30.10S FOG PINOPOLIS NOT AVBL MONCKS CORNER FOG 54 52 94 CALM 30.08S VSB 1/2 SUMMERVILLE NOT AVBL BEAUFORT MCAS CLOUDY 67 63 87 S8 30.09R BEAUFORT ARPT CLOUDY 64 64 100 CALM 30.10R HILTON HEAD IS NOT AVBL WALTERBORO FOG 59 59 100 CALM 30.09S VSB 1/2 ALLENDALE FOG 55 55 100 CALM 30.07R VSB<1/4 ...SOUTHERN MIDLANDS AND PEE DEE... CITY SKY/WX TMP DP RH WIND PRES REMARKS GEORGETOWN NOT AVBL KINGSTREE NOT AVBL ORANGEBURG FOG 50 49 96 CALM 30.07S VSB 1/4 BARNWELL FOG 54 54 100 CALM 30.07S VSB 1/4 AIKEN FOG 50 50 100 CALM 30.09S VSB 1/4 MANNING FOG N/A N/A N/A CALM 30.08R VSB 1/4 COLUMBIA DRZL/FOG 47 46 97 CALM 30.05F VSB 1/4 SUMTER FOG 46 46 100 S3 30.05S VSB 0 FLORENCE FOG 45 44 97 S5 30.06S VSB 1/4 MYRTLE BEACH CLOUDY 52 48 87 CALM 30.11S VSB 1/4 N MYRTLE BEACH FOG 48 47 96 SW3 30.08S VSB 1/4 $$ GAZ063-065-086>088-099>101-113>116-118-119-134>141-150-041100- ...SOUTHEAST GEORGIA... CITY SKY/WX TMP DP RH WIND PRES REMARKS SAVANNAH ARPT PTCLDY 63 61 94 S5 30.10R HUNTER AAF MOCLDY 66 66 100 S5 30.07S FORT STEWART FOG 61 59 94 CALM 30.07S VSB 3/4 STATESBORO CLEAR 60 60 100 S3 30.08S FOG SYLVANIA PTSUNNY 62 62 100 CALM 30.08F FOG CLAXTON PTSUNNY 57 57 100 CALM 30.08S FOG ...CSRA...CENTRAL AND FAR SOUTHEAST GEORGIA... CITY SKY/WX TMP DP RH WIND PRES REMARKS THOMSON CLOUDY 52 52 100 CALM 30.11S VSB<1/4 AUGUSTA-BUSH FOG 51 50 96 CALM 30.07S VSB 1/4 AUGUSTA-DANIEL FOG 53 51 93 CALM 30.06S VSB 1/4 SWAINSBORO NOT AVBL VIDALIA CLOUDY 64 64 100 S3 30.08S EASTMAN PTSUNNY 59 59 100 S5 30.10S FOG HAZLEHURST CLOUDY 65 65 100 S3 30.08R ALMA PTCLDY 59 58 96 SW3 30.09R FOG WAYCROSS CLEAR 65 65 98 SW5 30.09S JESUP FAIR 68 64 88 S3 30.10R BAXLEY FOG 63 63 100 CALM 30.09R VSB 1/2 BRUNSWICK MOCLDY 61 61 100 S3 30.11S SAINT SIMONS MOCLDY 59 58 96 SE5 30.11R $$ SCZ027-028-034-036>038-045-046-048>050-GAZ119-141-041100- ...LAKE AND SUPPLEMENTAL COASTAL OBSERVATIONS... STATION/POSITION TIME TEMP WIND PRES WAVE SWELL AIR SEA DIR/SP/G HT/PER HT/PER/DIR (UTC) (F) (DEG/KT/KT) (MB) (FT/S) (FT/S/D) UPR LAKE MARION NOT AVBL WINYAH BAY 0900 49 260/ 1 1018.0 LAKE MURRAY 1000 47 CALM 1017.3S ACE BASIN NERRS NOT AVBL FORT PULASKI 1000 59 50 200/ 1/ 2 1019.6R SAPELO ISLAND 1000 61 160/ 5 1019.0S $$ ANZ835-935-AMZ111-154-330-350-352-354-370-450-454-472-041100- ...C-MAN AND BUOY OBSERVATIONS... STATION/POSITION TIME TEMP WIND PRES WAVE SWELL AIR SEA DIR/SP/G HT/PER HT/PER/DIR (UTC) (F) (DEG/KT/KT) (MB) (FT/S) (FT/S/D) BUOY 41004 0950 70 68 200/ 10/ 12 1018.6R 4/ 8 3/ 8 BUOY 41008 0950 56 54 220/ 8/ 8 1019.4R 3/ 8 3/100/ 8 FOLLY BEACH CMAN 1000 54 220/ 8/ 9 1019.9R CAPERS NEARSHORE NOT AVBL FRIPP NEARSHORE 0900 54 220/ 8/ 10 1018.4F STATION/POSITION TIME TEMP WIND PRES WAVE SWELL AIR SEA DIR/SP/G HT/PER HT/PER/DIR (UTC) (F) (DEG/KT/KT) (MB) (FT/S) (FT/S/D) 5E ST. MARYS GA 0921 54 N/A 3/ 9 FRYING PAN BUOY 0950 62 61 230/ 2/ 4 1019.4R 5/ 7 5/120/ 7 BUOY 41025 NOT AVBL CAPE LOOKOUT NC 1000 58 200/ 11/ 13 1017.2F BUOY 41002 0950 71 72 200/ 17/ 23 1021.8R 6/ 9 3/120/ 9 BUOY 41010 0920 73 74 160/ 12/ 16 1020.7F ST AUGUSTINE FL 1000 61 170/ 5/ 5 1020.2R $$

USA.gov is the U.S. government's official web portal to all federal, state and local government web resources and services.